[[{"header":{"parameterUnit":"m.s-1","parameterCategory":1,"la1":30.2991,"la2":30.254,"lo1":-89.0895,"lo2":-89.0444,"dy":0.0017,"dx":0.0017,"nx":28,"ny":28,"refTime":"2023-10-24T03:00:00:Z","depth":0,"parameterNumber":2,"parameterNumberName":"U-component_of_WINDS"},"data":[0,0,0,0,0,0,0,0,0,0,0,0,0,0,0,0,0,0,0,0,0,0,0,0,0,0,0,0,0,0,0,0,0,0,0,0,0,0,0,0,0,0,0,0,0,0,0,0,0,0,0,0,0,0,0,0,0,0,-6.5516,-6.5517,0,-6.5537,-6.5538,-6.5538,-6.5472,-6.547,-6.5468,-6.5466,-6.5487,-6.5489,-6.5492,0,0,0,0,0,0,0,0,0,0,0,0,0,-6.5423,-6.5425,-6.5516,-6.5517,-6.5517,-6.5537,-6.5538,-6.5538,-6.5472,-6.547,-6.5467,-6.5465,-6.5486,-6.5489,-6.5492,0,0,0,0,0,0,0,0,0,0,0,0,0,-6.5456,-6.5425,-6.5516,-6.5486,-6.5484,-6.5537,-6.5538,-6.5538,-6.5473,-6.5469,-6.5466,-6.5464,-6.5485,-6.5489,-6.5492,-6.5575,0,0,-6.5503,-6.5505,0,0,0,0,0,0,0,0,-6.5454,-6.5459,-6.5491,-6.5489,-6.5486,-6.5499,-6.5512,-6.555,-6.5473,-6.5477,-6.5466,-6.5462,-6.5493,-6.5496,-6.5506,-6.5576,-6.5577,-6.5504,-6.5506,-6.5507,-6.5508,0,0,0,0,0,0,0,-6.5452,-6.5458,-6.5525,-6.5491,-6.5488,-6.5473,-6.5475,-6.5519,-6.5502,-6.5476,-6.5472,-6.5475,-6.5491,-6.5503,-6.5507,-6.5577,-6.5504,-6.5507,-6.5509,-6.551,-6.572,-6.5723,0,0,0,0,0,0,-6.5453,-6.5456,-6.5524,-6.5525,-6.5462,-6.5477,-6.5479,-6.5498,-6.5501,-6.5499,-6.5478,-6.5472,-6.5498,-6.5502,-6.5507,-6.5605,-6.5507,-6.5511,-6.5513,-6.5717,-6.5721,-6.5724,0,0,0,0,0,0,-6.5451,-6.546,-6.5523,-6.549,-6.5497,-6.5482,-6.5504,-6.55,-6.5511,-6.5502,-6.5499,-6.5492,-6.5496,-6.5502,-6.556,-6.5605,-6.5512,-6.5516,-6.5713,-6.5718,-6.5723,-6.5801,0,0,0,0,0,0,-6.5449,-6.5459,-6.5489,-6.5491,-6.5499,-6.5574,-6.5507,-6.5502,-6.5518,-6.5511,-6.5515,-6.5513,-6.5494,-6.5554,-6.5563,-6.5608,-6.5519,-6.5708,-6.5715,-6.5721,-6.5795,-6.5808,-6.582,0,0,0,0,0,-6.5446,-6.5509,-6.5491,-6.5499,-6.5536,-6.5577,-6.5581,-6.5558,-6.5522,-6.5552,-6.5548,-6.5513,-6.56,-6.5561,-6.557,-6.5617,-6.5705,-6.5713,-6.5721,-6.5789,-6.5806,-6.582,0,0,0,0,0,0,-6.5511,-6.5509,-6.5488,-6.5554,-6.5567,-6.5565,-6.5602,-6.5577,-6.5599,-6.5591,-6.5563,-6.5564,-6.5627,-6.5629,-6.5585,-6.57,-6.5646,-6.5656,-6.5695,-6.5711,-6.5724,-6.572,-6.5522,0,0,0,0,0,-6.5534,-6.5567,-6.5564,-6.5623,-6.563,-6.5616,-6.5633,-6.5616,-6.5627,-6.5631,-6.563,-6.5642,-6.5673,-6.5693,-6.572,-6.5797,-6.5797,-6.5834,-6.5847,-6.5858,-6.5865,-6.5908,-6.5924,-6.5749,-6.5749,-6.5749,0,0,-6.558,-6.5583,-6.5605,-6.5636,-6.5643,-6.5679,-6.562,-6.566,-6.5687,-6.5637,-6.569,-6.5692,-6.5704,-6.5772,-6.5802,-6.5775,-6.5915,-6.5868,-6.5876,-6.5878,-6.5918,-6.5934,-6.5949,-6.5755,-6.5754,-6.5753,0,0,-6.5681,-6.5687,-6.5737,-6.5748,-6.5761,-6.5752,-6.5765,-6.577,-6.5768,-6.5823,-6.5787,-6.582,-6.5873,-6.5884,-6.5896,-6.6011,-6.598,-6.6021,-6.6086,-6.6129,-6.6142,-6.6154,-6.6195,-6.6209,-6.603,-6.603,-6.603,0,-6.5735,-6.5787,-6.5767,-6.581,-6.5826,-6.5786,-6.5838,-6.5849,-6.587,-6.5882,-6.5853,-6.5921,-6.5926,-6.5997,-6.6026,-6.6038,-6.6052,-6.6017,-6.6142,-6.6154,-6.6165,-6.6203,-6.6218,-6.6035,-6.6034,-6.6034,-6.6033,0,-6.5855,-6.5892,-6.5932,-6.5955,-6.5976,-6.6024,-6.6011,-6.6036,-6.6019,-6.6015,-6.6073,-6.608,-6.6109,-6.6126,-6.6108,-6.6196,-6.6179,-6.6147,-6.6092,-6.6187,-6.6222,-6.6236,-6.6041,-6.604,-6.6038,-6.6037,0,0,-6.5989,-6.6007,-6.6021,-6.6033,-6.6048,-6.6077,-6.6125,-6.6155,-6.6177,-6.6196,-6.6235,-6.6284,-6.6256,-6.6271,-6.6256,-6.6293,-6.6384,-6.6257,-6.6257,-6.6278,-6.6482,-6.6503,-6.652,-6.6367,-6.6369,-6.6372,-6.648,0,-6.6088,-6.6169,-6.6156,-6.6235,-6.627,-6.6238,-6.628,-6.6295,-6.6295,-6.6326,-6.6325,-6.636,-6.6321,-6.633,-6.6366,-6.6365,-6.6424,-6.6358,-6.6402,-6.6404,-6.6396,-6.6538,-6.656,-6.6661,-6.6494,-6.6496,-6.6498,0,-6.6211,-6.6237,-6.632,-6.6334,-6.6349,-6.6386,-6.6415,-6.6446,-6.6464,-6.6461,-6.6482,-6.6462,-6.6512,-6.6461,-6.653,-6.6486,-6.6505,-6.6509,-6.6512,-6.6511,-6.6453,-6.6539,-6.6693,-6.6707,-6.6519,-6.6518,-6.6516,0,-6.63,-6.6356,-6.6413,-6.6425,-6.6442,-6.647,-6.6479,-6.6495,-6.6516,-6.6542,-6.6555,-6.6588,-6.6604,-6.6631,-6.6621,-6.6585,-6.6693,-6.6641,-6.6691,-6.6691,-6.671,-6.6708,-6.6866,-6.6729,-6.6729,-6.6729,-6.6728,0,-6.6408,-6.646,-6.6453,-6.6488,-6.6547,-6.6534,-6.6592,-6.6598,-6.6613,-6.665,-6.6625,-6.666,-6.6647,-6.6682,-6.6676,-6.6735,-6.6743,-6.6742,-6.6739,-6.6742,-6.6742,-6.675,-6.6742,-6.6733,-6.6732,-6.6731,-6.673,0,-6.6513,-6.6511,-6.6572,-6.6587,-6.6592,-6.6634,-6.6647,-6.6681,-6.6682,-6.6729,-6.674,-6.674,-6.6781,-6.6776,-6.6821,-6.6817,-6.689,-6.688,-6.6883,-6.6879,-6.6929,-6.6924,-6.7095,-6.7116,-6.6969,-6.697,-6.6971,0,-6.658,-6.662,-6.6641,-6.6665,-6.6676,-6.6714,-6.6736,-6.6727,-6.6751,-6.6779,-6.681,-6.685,-6.688,-6.6947,-6.6952,-6.6987,-6.6976,-6.7034,-6.6981,-6.6984,-6.6974,-6.6971,-6.6975,-6.7043,-6.7044,-6.7046,-6.7047,0,-6.67,-6.6699,-6.6731,-6.6766,-6.6794,-6.682,-6.6844,-6.6865,-6.6859,-6.6888,-6.693,-6.6955,-6.7003,-6.7042,-6.7077,-6.7088,-6.7067,-6.7065,-6.7078,-6.7079,-6.7079,-6.7078,-6.6908,-6.7059,-6.7058,-6.7057,-6.7057,-6.7056,-6.6786,-6.6821,-6.6842,-6.6881,-6.69,-6.6924,-6.6957,-6.6965,-6.7,-6.7039,-6.7033,-6.7081,-6.7104,-6.7149,-6.7164,-6.7202,-6.718,-6.72,-6.7204,-6.7208,-6.7213,-6.7077,-6.7209,-6.7208,-6.7208,-6.7208,-6.7207,0,-6.6902,-6.6916,-6.6952,-6.6988,-6.702,-6.7002,-6.703,-6.7057,-6.71,-6.7123,-6.7155,-6.7206,-6.7246,-6.7257,-6.7296,-6.7325,-6.7316,-6.7335,-6.733,-6.7334,-6.7231,-6.7214,-6.7341,-6.7341,-6.7341,-6.7341,-6.7341,-6.7341,-6.6965,-6.7024,-6.7027,-6.7096,-6.7109,-6.7157,-6.7174,-6.7198,-6.7217,-6.7275,-6.7309,-6.7317,-6.7337,-6.7378,-6.7415,-6.7417,-6.7431,-6.7454,-6.7452,-6.7354,-6.7341,-6.7327,-6.7312,-6.7458,-6.7458,-6.7551,-6.7552,-6.7553]},{"header":{"parameterUnit":"m.s-1","parameterCategory":1,"la1":30.2991,"la2":30.254,"lo1":-89.0895,"lo2":-89.0444,"dy":0.0017,"dx":0.0017,"nx":28,"ny":28,"refTime":"2023-10-24T03:00:00:Z","depth":0,"parameterNumber":3,"parameterNumberName":"V-component_of_WINDS"},"data":[0,0,0,0,0,0,0,0,0,0,0,0,0,0,0,0,0,0,0,0,0,0,0,0,0,0,0,0,0,0,0,0,0,0,0,0,0,0,0,0,0,0,0,0,0,0,0,0,0,0,0,0,0,0,0,0,0,0,1.8722,1.8722,0,1.8717,1.8717,1.8717,1.8737,1.8738,1.8738,1.8739,1.8729,1.8728,1.8727,0,0,0,0,0,0,0,0,0,0,0,0,0,1.8749,1.8749,1.8722,1.8722,1.8722,1.8717,1.8717,1.8717,1.8737,1.8738,1.8738,1.8739,1.8729,1.8728,1.8727,0,0,0,0,0,0,0,0,0,0,0,0,0,1.874,1.8748,1.8722,1.8732,1.8732,1.8717,1.8717,1.8717,1.8737,1.8738,1.8739,1.8739,1.8729,1.8728,1.8727,1.8701,0,0,1.8723,1.8723,0,0,0,0,0,0,0,0,1.874,1.8739,1.873,1.8731,1.8732,1.8729,1.8723,1.8712,1.8737,1.8735,1.8739,1.874,1.8728,1.8727,1.8724,1.8701,1.87,1.8723,1.8722,1.8722,1.8722,0,0,0,0,0,0,0,1.8741,1.8739,1.872,1.873,1.8731,1.8736,1.8736,1.8721,1.8726,1.8735,1.8737,1.8736,1.8728,1.8725,1.8724,1.87,1.8723,1.8722,1.8721,1.8721,1.8662,1.8661,0,0,0,0,0,0,1.8741,1.874,1.872,1.872,1.8739,1.8735,1.8735,1.8729,1.8727,1.8727,1.8735,1.8737,1.8727,1.8725,1.8723,1.8696,1.8722,1.8721,1.872,1.8662,1.8661,1.866,0,0,0,0,0,0,1.8741,1.8739,1.8721,1.873,1.8729,1.8734,1.8727,1.8728,1.8725,1.8727,1.8727,1.8731,1.8727,1.8725,1.8708,1.8696,1.872,1.8719,1.8663,1.8662,1.8661,1.8639,0,0,0,0,0,0,1.8742,1.8739,1.8729,1.873,1.8728,1.8705,1.8726,1.8728,1.8723,1.8725,1.8723,1.8723,1.8728,1.871,1.8707,1.8695,1.8718,1.8664,1.8663,1.8661,1.8641,1.8638,1.8634,0,0,0,0,0,1.8743,1.8721,1.8728,1.8726,1.8715,1.8705,1.8703,1.8711,1.8722,1.8712,1.8715,1.8723,1.8698,1.8708,1.8705,1.8692,1.8665,1.8663,1.8661,1.8643,1.8638,1.8635,0,0,0,0,0,0,1.8714,1.8721,1.8729,1.8707,1.8706,1.8708,1.8695,1.8705,1.8699,1.8701,1.8709,1.8708,1.8691,1.869,1.8701,1.867,1.8684,1.8681,1.8671,1.8666,1.8663,1.8663,1.8717,0,0,0,0,0,1.8706,1.8698,1.8703,1.8683,1.8683,1.869,1.8685,1.8692,1.869,1.8688,1.8689,1.8686,1.8678,1.8672,1.8665,1.8642,1.8643,1.8632,1.8629,1.8626,1.8623,1.8615,1.8611,1.8654,1.8654,1.8654,0,0,1.8688,1.869,1.8684,1.8678,1.8677,1.8669,1.8688,1.8677,1.8671,1.8686,1.8671,1.8672,1.867,1.8651,1.8643,1.865,1.8612,1.8624,1.8621,1.862,1.8613,1.8609,1.8605,1.8653,1.8653,1.8653,0,0,1.865,1.8651,1.8636,1.8637,1.8638,1.8643,1.864,1.8643,1.8645,1.8631,1.8643,1.8636,1.8621,1.8621,1.8618,1.8588,1.8596,1.8585,1.8566,1.8558,1.8555,1.8552,1.8543,1.8539,1.8582,1.8582,1.8582,0,1.8627,1.8615,1.8627,1.8617,1.8615,1.8632,1.8618,1.8618,1.8615,1.8614,1.8622,1.8608,1.8607,1.859,1.8584,1.858,1.8578,1.8584,1.8555,1.8552,1.8549,1.8541,1.8537,1.8581,1.8581,1.8581,1.8581,0,1.8587,1.8579,1.8567,1.8568,1.8565,1.8553,1.8564,1.856,1.8568,1.8573,1.8561,1.8562,1.8557,1.8554,1.856,1.8539,1.8544,1.8554,1.8568,1.8544,1.8536,1.8533,1.8579,1.858,1.858,1.858,0,0,1.8527,1.854,1.8535,1.8538,1.8543,1.8537,1.8527,1.8525,1.8522,1.8521,1.8514,1.8504,1.8515,1.8513,1.852,1.8513,1.8492,1.8524,1.8524,1.8519,1.8472,1.8465,1.8461,1.8499,1.8498,1.8498,1.8473,0,1.8492,1.8477,1.849,1.8472,1.8467,1.8486,1.8478,1.8481,1.8487,1.8483,1.8489,1.8483,1.8497,1.8496,1.849,1.8496,1.8483,1.8498,1.8492,1.8492,1.8492,1.8456,1.8448,1.8424,1.847,1.8469,1.8469,0,1.8447,1.8449,1.8431,1.8443,1.8441,1.8433,1.8435,1.8431,1.8436,1.8441,1.8442,1.8452,1.8445,1.846,1.8451,1.8461,1.846,1.8463,1.8463,1.8462,1.8478,1.8455,1.8416,1.8413,1.8464,1.8464,1.8464,0,1.8408,1.8405,1.8396,1.8397,1.8409,1.8404,1.8409,1.8415,1.8414,1.8416,1.8416,1.8416,1.8415,1.8415,1.8427,1.8437,1.8417,1.8432,1.8421,1.8421,1.8415,1.8415,1.8376,1.8414,1.8414,1.8414,1.8414,0,1.8367,1.8356,1.8379,1.8372,1.8362,1.8379,1.8368,1.8374,1.838,1.8377,1.8393,1.8389,1.8404,1.8402,1.8411,1.8404,1.8403,1.8407,1.841,1.8406,1.8406,1.8405,1.8407,1.8413,1.8414,1.8414,1.8414,0,1.832,1.8334,1.8326,1.834,1.8344,1.8335,1.8348,1.8343,1.8353,1.8348,1.8348,1.8362,1.8362,1.8374,1.8374,1.838,1.8369,1.8374,1.8368,1.837,1.8359,1.836,1.8317,1.8313,1.8354,1.8353,1.8353,0,1.8292,1.8285,1.83,1.8301,1.8305,1.8304,1.8306,1.8323,1.8323,1.8332,1.8327,1.8328,1.833,1.8328,1.8338,1.834,1.8346,1.8331,1.8345,1.8344,1.8347,1.8347,1.8348,1.8327,1.8327,1.8326,1.8326,0,1.8243,1.8253,1.8254,1.826,1.8262,1.8266,1.8272,1.8271,1.829,1.829,1.8291,1.8293,1.8297,1.8299,1.8303,1.8308,1.8321,1.8322,1.832,1.8315,1.8313,1.8316,1.836,1.8322,1.8322,1.8323,1.8323,1.8323,1.8206,1.8202,1.8214,1.8216,1.8224,1.823,1.8228,1.824,1.8241,1.8247,1.8257,1.8258,1.8267,1.8275,1.828,1.8281,1.8288,1.8284,1.8283,1.8282,1.8281,1.8314,1.8281,1.8281,1.8282,1.8282,1.8282,0,1.8159,1.8169,1.8172,1.8181,1.8184,1.8199,1.8208,1.8209,1.821,1.8218,1.8222,1.8225,1.8228,1.8241,1.8246,1.8244,1.825,1.8245,1.8245,1.8246,1.8273,1.8275,1.824,1.824,1.824,1.824,1.824,1.824,1.8135,1.8131,1.8142,1.8143,1.8152,1.8155,1.8159,1.8165,1.8173,1.8177,1.8181,1.819,1.8201,1.8208,1.8212,1.8216,1.8217,1.821,1.8216,1.824,1.8244,1.8248,1.825,1.821,1.821,1.8189,1.8189,1.8189]}]]